Simultaneous Nadir Overpasses (SNOs) Predictions

Prediction of SNOs between AQUA and METOP-A Satellite Orbit:

Table of predicted SNOs for the next 14.0 days since TLE Epoch: 4/13/2017
Index Date (AQUA) Time (AQUA) Lat,Lon (AQUA) SZA (AQUA ) Date (METOP-A) Time (METOP-A) Lat,Lon (METOP-A) SZA (METOP-A ) Distance(km) Time Diff (sec)
1 04/16/2017 15:24:52 73.87, -57.03 63.53 04/16/2017 15:23:44 73.86, -56.96 63.52 2.95 68
2 04/16/2017 16:14:19 -73.93, 110.49 116.43 04/16/2017 16:14:25 -73.92, 110.51 116.44 1.27 6
3 04/16/2017 17:03:48 74.08, -82.21 63.72 04/16/2017 17:05:00 74.08, -81.75 63.71 14.12 72
4 04/19/2017 10:59:05 73.83, 9.50 62.50 04/19/2017 10:58:05 73.85, 9.42 62.53 2.92 60
5 04/19/2017 11:48:33 -73.94, 176.91 117.41 04/19/2017 11:48:46 -73.91, 176.90 117.43 2.89 13
6 04/19/2017 12:38:08 74.35, -16.40 63.03 04/19/2017 12:39:17 74.32, -14.75 62.94 49.67 69
7 04/22/2017 06:33:20 73.85, 75.90 61.56 04/22/2017 06:32:27 73.84, 75.80 61.56 3.21 53
8 04/22/2017 07:22:48 -73.95,-116.69 118.35 04/22/2017 07:23:07 -73.95,-116.60 118.36 2.80 19
9 04/22/2017 08:12:28 74.62, 49.38 62.36 04/22/2017 08:13:33 74.60, 52.39 62.25 89.10 65
10 04/25/2017 02:07:35 73.87, 142.28 60.65 04/25/2017 02:06:48 73.87, 142.29 60.66 0.46 47
11 04/25/2017 02:57:02 -73.93, -50.19 119.31 04/25/2017 02:57:29 -73.94, -50.23 119.30 1.74 27
12 04/27/2017 21:41:48 73.85,-151.24 59.72 04/27/2017 21:41:09 73.86,-151.34 59.74 3.10 39




NCC Satellite Simultaneous Nadir Overpasses (SNOs) Prediction Service
